Lid_Strength_Index
5 5 5 4 4 4 4 4 4 4 4 4 4 3 3 2 3 6 8 5 3 1 3 5 6 6 6 7 7 8 11 12 12 12 11 8 9 7 7 7 7 6 6 6 5
5 5 5 5 5 4 4 4 4 4 4 4 4 3 3 3 6 8 5 2 2 2 6 7 8 7 8 8 8 9 11 12 10 9 10 9 8 8 8 8 7 7 5 5 5
5 5 5 5 5 5 4 4 4 4 4 4 4 3 3 3 9 9 4 3 3 4 6 6 7 8 9 8 9 10 11 10 10 8 8 9 8 7 8 9 8 8 7 6 6
4 5 5 5 5 5 4 4 5 5 4 4 4 3 3 6 12 7 4 4 4 5 6 7 7 9 10 11 9 11 10 10 9 8 8 9 8 9 8 8 7 7 7 6 6
4 4 5 5 5 5 5 4 5 5 4 4 4 3 5 10 10 6 5 5 6 6 7 8 9 10 11 10 10 10 10 9 9 8 8 8 9 9 9 8 7 7 7 7 6
3 4 4 5 5 5 5 5 5 5 5 4 4 4 7 12 7 6 6 6 6 6 7 7 9 8 10 10 10 9 10 9 9 9 8 9 9 9 8 8 8 8 7 7 6
5 4 3 4 5 5 5 5 5 5 5 4 4 6 9 10 7 6 6 7 6 7 8 7 7 8 9 10 9 10 11 10 10 9 9 9 11 10 9 8 8 8 7 7 6
5 5 3 3 4 5 5 5 5 5 5 5 4 7 11 7 6 7 7 7 6 6 6 6 6 8 9 9 10 12 11 13 10 10 9 10 12 10 9 9 9 8 8 7 6
5 6 6 3 4 5 5 5 5 6 5 5 7 9 12 6 9 8 7 8 8 7 6 7 8 10 10 11 12 12 14 14 13 10 10 10 12 10 9 9 9 9 8 8 7
5 5 6 5 5 5 5 6 6 7 7 6 8 11 10 11 9 8 7 7 9 9 10 9 11 11 11 12 14 14 14 14 14 12 11 11 11 10 9 9 9 9 9 8 7
5 5 5 6 5 5 8 9 11 12 10 11 12 12 11 9 8 8 7 8 9 11 13 12 13 13 13 12 13 13 13 14 13 11 12 12 11 10 10 10 10 9 9 8 8
4 4 5 5 6 6 9 12 12 12 15 12 11 11 10 9 11 9 8 11 12 14 13 13 14 13 11 12 13 13 14 14 13 12 12 12 12 10 10 10 10 10 9 9 8
4 5 5 6 7 9 11 11 9 9 16 14 12 12 11 10 12 11 9 11 13 14 14 15 14 13 13 14 14 14 14 15 14 13 12 13 13 12 11 10 9 9 9 9 9
4 4 5 6 9 11 13 10 9 9 14 15 14 12 11 10 12 10 9 11 13 15 15 15 14 14 14 15 14 16 13 14 14 14 15 13 18 15 12 12 10 10 9 9 9
3 4 5 6 12 12 12 10 9 10 19 15 15 10 11 13 12 12 10 11 14 14 15 16 15 15 15 15 13 15 13 13 14 14 15 15 15 14 14 13 11 10 10 10 9
3 4 5 8 9 10 11 10 10 15 18 17 15 15 14 13 13 12 12 10 11 14 14 15 13 13 14 13 13 12 13 14 14 14 17 17 16 14 13 12 11 10 10 11 10
4 4 5 7 10 9 10 12 17 18 15 17 17 15 15 15 14 14 14 14 15 17 17 16 15 13 13 14 13 13 15 16 17 18 17 17 17 14 13 12 11 11 11 11 10
4 5 6 8 9 9 11 16 21 16 16 16 16 16 17 15 15 15 15 16 14 16 16 17 18 15 13 14 15 14 15 17 20 19 18 17 18 13 12 11 10 10 11 12 11
4 8 9 8 8 9 13 19 18 17 14 16 17 18 17 16 16 16 16 16 14 14 16 18 18 15 14 13 13 15 16 15 18 20 18 16 15 13 12 12 11 11 12 12 11
7 9 10 8 8 10 15 16 16 15 15 15 15 16 18 17 17 16 16 15 15 14 14 16 18 16 15 13 13 14 13 17 16 20 20 18 18 15 14 13 12 12 12 12 11
8 11 9 8 8 14 18 17 15 15 14 15 15 17 16 18 16 17 16 15 14 15 14 15 17 18 15 15 15 15 16 16 16 17 20 20 16 12 12 11 11 11 11 12 12
9 15 8 8 15 16 17 16 15 16 14 15 15 16 16 17 17 17 17 16 13 13 16 15 17 19 17 15 14 14 15 15 18 19 18 19 17 13 12 11 10 10 11 12 11
12 13 9 9 16 18 16 16 16 16 15 16 16 15 16 17 18 16 16 15 13 14 15 15 18 20 19 18 16 16 15 15 16 16 19 19 15 14 13 12 11 10 11 12 12
12 16 14 13 13 13 16 16 16 15 14 14 15 15 17 17 17 18 17 16 14 14 13 14 18 18 18 18 17 18 16 15 15 18 18 17 15 15 13 13 12 12 12 12 12
12 14 13 16 16 15 14 16 16 17 16 13 15 15 15 18 18 18 17 16 15 14 15 15 18 19 19 18 18 16 16 16 16 15 17 15 16 13 12 12 11 11 12 13 12
13 13 13 14 13 15 14 15 15 16 17 16 16 15 14 16 15 18 17 17 16 15 16 16 18 20 20 20 19 20 17 16 16 15 15 15 15 11 11 11 11 12 13 13 12
9 8 10 12 14 15 15 14 14 14 15 14 14 15 15 14 13 14 15 14 14 15 16 17 19 20 20 23 23 21 19 17 16 15 15 17 13 12 13 13 12 12 12 13 12